Location: Unspecified
(0.0000°N, 0.0000°E)
Time: 19:44:38
(UTC+00:00)

deb Delta 126 - Pass Details

Date: 21 February 2026
Orbit: 1501 x 1634 km, 102.6° (Epoch: 11 March)

Event Time Altitude Azimuth Distance (km) Brightness Sun altitude
Rises 02:23:11 0° 60° (ENE) 4,758 ? -56.1°
Reaches altitude 10° 02:28:43 10° 88° (E) 3,745 ? -54.8°
Maximum altitude 02:31:39 12° 108° (ESE) 3,569 ? -54.1°
Drops below altitude 10° 02:34:34 10° 129° (SE) 3,716 ? -53.4°
Sets 02:39:55 0° 156° (SSE) 4,675 ? -52.1°
